ROMMA est une association bénévole à but non lucratif. Votre soutien est indispensable : ADHERER à ROMMA ou FAIRE un DON

Pinsot - (38, Isère)

Vallée du Haut Bréda (750 m)   Longitude: 06° 06' E   Latitude: 45° 21' N Station partenaire n°101
 

Détail journalier du     <<     >>

Température Precipitation Humidité Pression Vent Dir Rafale Dir. rafale Ensol.
Heure (°C) (mm) (%) (hPa) (km/h) (km/h) (min)
01:00 3.609410133SSO13SSO0
02:00 3.509410133SSO13SSO0
03:00 4.009310133SSO16S0
04:00 3.609410122SSO13SSO0
05:00 3.709310123SSO13S0
06:00 3.409410113SSO13SSO0
07:00 3.809310122SSO15SSO0
08:00 3.709310111SSO13SSO0
09:00 4.209310122SSO13SO0
10:00 4.509310122SSO13SSO0
11:00 5.809010122SSO15SSO0
12:00 6.3090101208S0
13:00 7.808810101SSO13SSO0
14:00 8.60881010010SSO0
15:00 8.8088101006E0
16:00 8.608110102SSO18SSO0
17:00 7.109010091SSO15SSO0
18:00 6.808810091SSO10SSO0
19:00 6.708610091SSO13SSO0
20:00 6.408710091SSO11SSO0
21:00 6.40.28710092SSO13SSO0
22:00 6.408710083SSO18SSO0
23:00 6.508710084SSO18SSO0
minuit 6.908510085SSO15SSO0

Graphique du 16-12-2019

 

Serveur OMMA